Home > Time Zones > World Clock > Weather > France > Caen > Past weeks

Flag for France Weather past 2 weeks in Caen, France

54 °F

Partly cloudy.

Feels Like: 48 °F
Forecast: 53 / 56 °F
Wind: 22 mph from West

Location: Caen Airport

Current Time: Nov 30, 2015 at 12:24:18 AM

Latest Report: Nov 29, 2015 at 11:30 PM

Visibility: N/A

Pressure: 30.18 "Hg

Humidity: 77%

Dew point: 46 °F

Location of CaenLocation

Historic Weather in Caen — Graph


Caen temperature yesterday

Maximum temperature yesterday: 55 °F (at 1:30 PM)
Minimum temperature yesterday: 50 °F (at 12:00 AM)
Average temperature yesterday: 53 °F

Past Weeks' High & Low Weather Summary

High63 °F (Nov 17, 3:30 AM)100% (Nov 16, 8:00 PM)30.30 "Hg (Nov 16, 8:00 PM)
Low32 °F (Nov 22, 7:30 AM)57% (Nov 21, 5:30 PM)29.65 "Hg (Nov 21, 3:30 AM)
Average50 °F84%30.01 "Hg
* Reported Nov 14 11:00 PM — Nov 29 11:00 PM, Caen, Weather by CustomWeather, © 2015

Note: Actual official high and low records may vary slightly from our data, if they occured in-between our weather recording intervals... More about our weather records


Caen weather history for previous 24 hours

Time TempWeatherWind HumidityBarometerVisibility
11:00 PM
Sun, Nov 29
54 °FMostly cloudy.21 mph77%30.18 "HgN/A
10:30 PM54 °FMostly cloudy.22 mph77%30.18 "HgN/A
10:00 PM54 °FMostly cloudy.24 mph77%30.15 "HgN/A
9:30 PM54 °FPassing clouds.26 mph77%30.15 "HgN/A
9:00 PM54 °FPartly cloudy.28 mph77%30.15 "HgN/A
8:30 PM54 °FPartly cloudy.26 mph77%30.15 "HgN/A
8:00 PM54 °FPartly cloudy.23 mph72%30.12 "HgN/A
7:30 PM54 °FOvercast.22 mph72%30.12 "HgN/A
7:00 PM54 °FMostly cloudy.23 mph72%30.12 "HgN/A
6:30 PM54 °FPartly cloudy.26 mph77%30.12 "HgN/A
6:00 PM54 °FMostly cloudy.23 mph77%30.12 "HgN/A
5:30 PM54 °FMostly cloudy.23 mph77%30.09 "HgN/A
5:00 PM54 °FMore clouds than sun.24 mph77%30.09 "HgN/A
4:30 PM54 °FCloudy.22 mph77%30.09 "HgN/A
4:00 PM54 °FSunny.25 mph72%30.09 "Hg10 mi
3:30 PM54 °FPassing clouds.29 mph72%30.09 "HgN/A
3:00 PM55 °FMostly cloudy.26 mph72%30.09 "HgN/A
2:30 PM55 °FPartly sunny.29 mph72%30.09 "HgN/A
2:00 PM54 °FMostly cloudy.24 mph77%30.07 "HgN/A
1:30 PM55 °FPartly sunny.26 mph72%30.07 "HgN/A
1:00 PM54 °FPartly sunny.22 mph77%30.07 "HgN/A
12:30 PM54 °FBroken clouds.24 mph77%30.07 "HgN/A
12:00 PM54 °FBroken clouds.24 mph82%30.07 "HgN/A
11:30 AM52 °FLight rain. Mostly cloudy.24 mph88%30.07 "HgN/A
10:30 AM54 °FOvercast.20 mph77%30.07 "HgN/A
10:00 AM54 °FOvercast.24 mph77%30.07 "HgN/A
9:30 AM52 °FPartly sunny.24 mph88%30.07 "HgN/A
9:00 AM52 °FPartly sunny.20 mph88%30.04 "HgN/A
7:30 AM52 °FPassing clouds.20 mph88%30.01 "HgN/A
7:00 AM52 °FMostly cloudy.21 mph88%30.01 "HgN/A
6:00 AM52 °FPassing clouds.17 mph88%30.01 "HgN/A
5:30 AM52 °FPartly cloudy.21 mph88%29.98 "HgN/A
5:00 AM52 °FMostly cloudy.20 mph88%29.98 "HgN/A
4:30 AM52 °FMostly cloudy.20 mph88%29.98 "HgN/A
4:00 AM52 °FPassing clouds.21 mph88%29.98 "HgN/A
3:30 AM50 °FOvercast.20 mph94%29.98 "HgN/A
3:00 AM50 °FPartly cloudy.22 mph94%29.98 "HgN/A
2:30 AM50 °FLight rain. Partly cloudy.17 mph94%29.98 "Hg5 mi
2:00 AM50 °FPartly cloudy.18 mph88%29.98 "HgN/A
1:30 AM50 °FMostly cloudy.20 mph88%29.98 "HgN/A
1:00 AM50 °FPartly cloudy.18 mph88%29.98 "Hg4 mi
12:30 AM50 °FLight rain. Passing clouds.21 mph88%29.98 "HgN/A
12:00 AM50 °FMostly cloudy.22 mph82%29.98 "HgN/A
Weather by CustomWeather, © 2015

See weather overviewHow to use our weather pages